CW1203 Weather Reports


time (UTC)temp
C
wind
direction
speed
KPH
gust
KPH
rain 1hr
cm
rain 24hr
cm
rain mn
cm
humidity
%
barometer
mb
20260505153054 19 23 0.0 11.3 0.00 0.03 0.00 53 1014.7
20260505151553 20 314 0.0 6.4 0.00 0.03 0.00 53 1014.9
20260505124527 13 345 0.0 0.0 0.00 0.03 0.00 71 1014.1
20260505123032 12 168 0.0 0.0 0.00 0.03 0.00 74 1014.2
20260505121525 11 168 0.0 0.0 0.00 0.03 0.00 75 1014.0
20260505120025 10 167 0.0 0.0 0.00 0.03 0.00 79 1013.9
20260505114522 10 167 0.0 0.0 0.00 0.03 0.00 80 1013.8
20260505113022 10 167 0.0 0.0 0.00 0.03 0.00 79 1013.7
20260505111522 10 167 0.0 0.0 0.00 0.03 0.00 78 1013.7
20260505101527 11 335 0.0 0.0 0.00 0.03 0.00 72 1013.6
20260505100019 11 345 0.0 0.0 0.00 0.03 0.00 70 1013.4
20260505094504 12 31 0.0 0.0 0.00 0.03 0.00 67 1013.3
20260505093105 13 266 0.0 0.0 0.00 0.03 0.00 62 1013.3
20260505091557 13 278 0.0 6.4 0.00 0.03 0.00 59 1013.4
20260505090100 14 335 0.0 1.6 0.00 0.03 0.00 57 1013.2
20260505084605 14 267 0.0 8.0 0.00 0.03 0.00 56 1013.1
20260505083055 14 251 0.0 8.0 0.00 0.03 0.00 56 1012.8
20260505081609 14 271 0.0 9.7 0.00 0.03 0.00 56 1012.6
20260505080100 14 252 0.0 8.0 0.00 0.03 0.00 56 1012.5
20260505074552 14 231 0.0 4.8 0.00 0.03 0.00 56 1012.5
20260505073050 14 312 0.0 6.4 0.00 0.03 0.00 57 1012.8
20260505071554 15 245 1.6 9.7 0.00 0.03 0.00 58 1012.9
20260505070046 14 277 1.6 16.1 0.00 0.03 0.00 59 1013.0
20260505064542 14 333 0.0 8.0 0.00 0.03 0.00 62 1013.1
20260505063047 13 211 0.0 1.6 0.00 0.03 0.00 63 1013.2
20260505061541 13 8 0.0 9.7 0.00 0.03 0.00 65 1013.4
20260505060036 13 315 0.0 1.6 0.00 0.03 0.00 65 1013.5
20260505054544 14 301 0.0 4.8 0.00 0.03 0.00 64 1013.5
20260505053039 14 214 0.0 3.2 0.00 0.03 0.00 64 1013.5
20260505051539 14 220 0.0 3.2 0.00 0.03 0.00 64 1013.5
20260505041524 13 139 0.0 0.0 0.00 0.03 0.00 64 1013.8
20260505040020 14 139 0.0 0.0 0.00 0.03 0.00 63 1013.8
20260505034519 13 219 0.0 0.0 0.00 0.03 0.03 63 1013.9
20260505033019 14 219 0.0 0.0 0.00 0.03 0.03 62 1014.0
20260505031521 14 218 0.0 0.0 0.00 0.03 0.03 61 1014.1
20260505030018 14 203 0.0 0.0 0.00 0.03 0.03 59 1014.0
20260505024517 15 203 0.0 0.0 0.00 0.03 0.03 58 1014.0
20260505023020 15 203 0.0 0.0 0.00 0.03 0.03 57 1014.1
20260505021516 16 58 0.0 0.0 0.00 0.03 0.03 56 1013.9
20260505020015 16 354 0.0 1.6 0.00 0.03 0.03 55 1013.7
20260505014515 16 68 0.0 0.0 0.00 0.03 0.03 55 1013.6
20260505013014 16 84 0.0 3.2 0.00 0.03 0.03 53 1013.5
20260505011520 16 254 0.0 1.6 0.00 0.03 0.03 52 1013.3
20260505010025 17 108 0.0 1.6 0.00 0.03 0.03 51 1013.2
20260505004513 17 271 0.0 1.6 0.00 0.03 0.03 50 1013.1
20260505003012 17 288 0.0 3.2 0.00 0.03 0.03 49 1013.1
20260505001511 17 244 0.0 4.8 0.00 0.03 0.03 48 1013.0
20260505000016 18 13 0.0 0.0 0.00 0.03 0.03 46 1013.0
20260504234510 21 330 0.0 0.0 0.00 0.03 0.03 42 1012.8
20260504233009 21 71 0.0 8.0 0.00 0.03 0.03 43 1012.8
20260504231508 21 240 0.0 1.6 0.03 0.03 0.03 41 1012.7
20260504230007 22 259 0.0 8.0 0.03 0.03 0.03 42 1012.6
20260504224506 22 188 0.0 4.8 0.03 0.03 0.03 39 1012.7
20260504223005 22 302 0.0 11.3 0.03 0.03 0.03 40 1012.7
20260504221515 22 301 1.6 11.3 0.00 0.00 0.00 38 1012.8
20260504220004 22 23 0.0 11.3 0.00 0.00 0.00 38 1012.8
20260504214503 23 227 1.6 6.4 0.00 0.00 0.00 37 1012.8
20260504213001 23 283 0.0 9.7 0.00 0.00 0.00 38 1012.8
20260504211600 23 221 0.0 6.4 0.00 0.00 0.00 37 1012.8
20260504210100 23 266 0.0 4.8 0.00 0.00 0.00 36 1012.9
20260504204605 23 276 0.0 8.0 0.00 0.00 0.00 35 1013.1
20260504203054 23 291 0.0 6.4 0.00 0.00 0.00 35 1013.1
20260504201554 23 56 0.0 3.2 0.00 0.00 0.00 32 1013.3
20260504200050 22 146 0.0 8.0 0.00 0.00 0.00 33 1013.5
20260504194555 22 232 0.0 8.0 0.00 0.00 0.00 32 1013.7
20260504193048 22 37 0.0 4.8 0.00 0.00 0.00 32 1013.9
20260504191545 22 39 0.0 3.2 0.00 0.00 0.00 36 1014.1
20260504190044 22 21 0.0 6.4 0.00 0.00 0.00 38 1014.1
20260504184542 22 296 0.0 11.3 0.00 0.00 0.00 37 1014.3
20260504183042 22 127 0.0 4.8 0.00 0.00 0.00 38 1014.4
20260504181539 22 258 0.0 6.4 0.00 0.00 0.00 36 1014.5
20260504180045 22 251 0.0 4.8 0.00 0.00 0.00 36 1014.7
20260504174535 21 283 0.0 6.4 0.00 0.00 0.00 29 1015.0
20260504173035 21 327 0.0 6.4 0.00 0.00 0.00 30 1015.2
20260504171534 21 304 0.0 1.6 0.00 0.00 0.00 34 1015.2